Overview Statistics Trail Chart Weather Telemetry Raw packets
 

This is the latest recevied weather packets stored in our database for station/object 4S6DRJ-13. If no packets are shown the sender has not sent any weather packets the latest 10 day(s).

<< 489 490 491 492 493 494 495 >>
Time Temp. Humidity Pressure Rain* Wind** Luminosity Snow
1787704691 26.67° C 89% 1010.1 hPa 0.25 mm 0 m/s 4 W/m² -
1787704632 26.67° C 89% 1010.2 hPa 0.25 mm 0 m/s 3 W/m² -
1787704569 26.67° C 89% 1010.3 hPa 0.25 mm 0 m/s 3 W/m² -
1787704508 26.67° C 89% 1010.2 hPa 0.25 mm 0.45 m/s, 219° 3 W/m² -
1787704447 26.67° C 89% 1010.2 hPa 0.25 mm 0 m/s 3 W/m² -
1787704386 26.67° C 89% 1010.1 hPa 0.25 mm 0.89 m/s, 238° 3 W/m² -
1787704325 26.67° C 89% 1010.4 hPa 0.25 mm 0.45 m/s, 219° 2 W/m² -
1787704264 26.67° C 89% 1010.2 hPa 0.25 mm 0.89 m/s, 223° 2 W/m² -
1787704203 26.67° C 89% 1010.3 hPa 0.25 mm 2.24 m/s, 225° 2 W/m² -
1787704142 26.67° C 89% 1010.2 hPa 0.25 mm 1.34 m/s, 132° 1 W/m² -
1787704081 26.67° C 89% 1010.2 hPa 0.25 mm 0.89 m/s, 320° 1 W/m² -
1787704021 26.67° C 89% 1010.1 hPa 0.25 mm 0.89 m/s, 301° 1 W/m² -
1787703959 26.67° C 89% 1010 hPa 0.25 mm 0.89 m/s, 162° 1 W/m² -
1787703901 26.67° C 89% 1010.2 hPa 0.25 mm 1.34 m/s, 219° 1 W/m² -
1787703838 26.67° C 89% 1010.2 hPa 0.25 mm 0.45 m/s, 313° 0 W/m² -
1787703776 26.67° C 89% 1010.3 hPa 0.25 mm 1.34 m/s, 196° 0 W/m² -
1787703715 26.67° C 89% 1010.2 hPa 0.25 mm 0 m/s 0 W/m² -
1787703654 26.67° C 89% 1010.1 hPa 0.25 mm 0.89 m/s, 242° 0 W/m² -
1787703593 26.67° C 89% 1010.3 hPa 0.25 mm 1.79 m/s, 226° 0 W/m² -
1787703532 26.67° C 89% 1010.2 hPa 0.25 mm 0.89 m/s, 241° 0 W/m² -
1787703471 26.67° C 89% 1010.1 hPa 0.25 mm 1.34 m/s, 219° 0 W/m² -
1787703410 26.67° C 89% 1010.2 hPa 0.25 mm 1.79 m/s, 214° 0 W/m² -
1787703349 26.67° C 89% 1010 hPa 0.25 mm 1.79 m/s, 211° 0 W/m² -
1787703288 26.67° C 89% 1010 hPa 0.25 mm 1.79 m/s, 210° 0 W/m² -
1787703227 26.67° C 89% 1010.2 hPa 0.25 mm 2.24 m/s, 249° 0 W/m² -

* Rain latest hour (hover to see other rain measurements)
** Current wind speed in m/s (hover to see current wind gust speed)